Погода в Томашполе

Украина / Винницкая область     48°33′01″N   28°31′17″E
темп.,
°C
ветер,
м/с
пор.,
м/с
влажн.,
%
обл.,
%
осадки,
мм/ч
давл.,
гПа
погр.,
м
18 сентября, сб
сб1800:00+16ю41083100 0.4 1006231
03:00+16ю378260 0.6 1005153
06:00+14зюз41097100 0.0 1005433
09:00+15з61090100 0.3 1006654
12:00+15з4784100 0.1 1007666
15:00+16з4781100 0.1 1008682
18:00+19зсз585238 0.0 1007820
21:00+13сз388037 0.0 1009141
19 сентября, вс
вс1900:00+12з387978 0.0 1010160
03:00+12зсз378151 0.0 1010267
06:00+11зюз238680 0.1 100987
09:00+13юз2381100 0.5 1009271
12:00+15з347397 0.6 1009874
15:00+10сз687593 0.9 1011508
18:00+8зсз5885100 0.4 1011595
21:00+7зсз4889100 1.9 1012780
20 сентября, пн
пн2000:00+7зсз5883100 0.1 1012998
03:00+7з5986100 0.3 1012679
06:00+6зсз5986100 0.1 1012956
09:00+7з5887100 0.2 1012972
12:00+7зсз6986100 0.0 1013678
15:00+8зсз61084100 0.0 1014765
18:00+8зсз61085100 0.0 1014694
21:00+7сз51086100 0.0 1016632
21 сентября, вт
вт2100:00+7зсз598557 0.0 1017610
03:00+7зсз4982100 0.0 1017746
06:00+6зсз5979100 0.0 1018898
09:00+6зсз61073100 0.1 10191042
12:00+8зсз7961100 0.1 10201325
15:00+8сз81063100 0.1 10211163
18:00+9сз6961100 0.0 10211136
21:00+7сз51069100 0.0 1023912
22 сентября, ср
ср2200:00+7сз5973100 0.0 1023875
03:00+6сз5978100 0.0 1022832
06:00+6сз5982100 0.0 1022773
09:00+7сз6977100 0.0 1022870
12:00+9сз6856100 0.0 10221346
15:00+12сз6842100 0.0 10201979
18:00+12ссз484097 0.0 10191823
21:00+8сз365284 0.0 1020117